Temp
11 11 11 11 11 11 11 11 11 11 11 11 11 11 11 11 11 11 11 10 10 10 10 10 10 10 10 10 10 10 10 10 10 10 10 10 10 10 10 10 10 11 11 11 11 11 11 11 11 11 12 12 12 12 12 12 11 11 11 11 11 11 10
11 11 11 12 11 11 11 11 11 11 11 11 11 12 12 11 12 12 11 11 11 10 10 10 10 10 10 10 10 10 10 10 10 10 10 10 10 10 11 11 11 11 11 11 11 11 11 11 12 12 12 12 12 12 12 11 11 11 11 11 11 11 11
11 11 12 12 11 11 11 11 11 11 11 11 12 12 12 12 12 12 12 11 11 11 10 10 10 10 10 10 10 10 10 10 10 10 10 11 11 11 11 11 11 11 11 11 11 11 11 12 12 12 12 11 11 11 11 11 11 11 11 11 11 11 11
11 11 11 12 11 11 11 11 11 11 11 12 12 12 12 12 12 12 12 12 11 11 11 11 11 11 11 11 11 11 11 11 11 11 11 11 11 11 11 11 11 11 11 11 11 11 12 12 12 12 11 11 11 11 11 11 11 11 11 11 11 11 11
11 11 11 11 11 11 11 11 11 11 11 12 12 12 12 12 12 12 12 12 11 11 11 11 11 11 11 11 11 11 11 11 11 11 11 11 11 11 11 11 11 11 11 11 11 11 12 12 11 11 11 11 11 11 11 11 11 11 11 11 11 11 11
11 11 12 11 11 11 11 11 11 11 12 12 12 12 12 12 12 12 12 12 11 11 11 11 11 11 11 11 11 11 11 11 11 11 11 11 11 11 11 11 11 11 11 12 11 11 12 11 11 11 12 12 12 12 12 11 11 11 11 11 11 11 11
11 11 12 12 12 11 11 10 11 11 12 12 12 12 12 12 12 12 12 11 11 11 11 11 11 10 10 11 11 11 11 11 11 11 11 11 11 11 11 11 11 11 11 11 11 11 12 11 11 11 12 12 11 11 11 11 11 11 11 11 10 10 10
12 12 12 12 12 11 11 10 10 11 11 12 12 12 12 12 12 11 11 11 11 11 11 10 10 10 10 10 10 10 11 11 11 11 11 11 11 11 11 11 11 11 11 11 11 11 11 11 11 11 11 11 10 11 11 11 10 10 10 10 10 10 10
12 12 12 12 12 11 11 10 10 11 11 11 12 12 12 12 11 11 11 11 11 10 10 10 10 10 10 10 10 10 10 10 10 10 10 10 11 11 11 11 11 11 11 11 11 11 11 11 11 10 10 10 10 10 10 10 10 10 10 10 10 10 10
12 12 12 12 12 11 10 10 10 11 11 11 11 11 12 12 11 11 11 11 10 10 10 10 10 10 10 10 10 10 10 10 10 10 10 10 10 11 11 11 11 11 11 11 11 11 11 11 11 10 10 10 10 9 9 10 10 10 10 10 9 9 9
12 12 12 12 11 10 11 11 11 11 11 11 11 11 11 11 11 10 10 10 10 10 10 10 10 10 10 10 9 9 10 10 10 10 10 10 10 10 10 10 11 11 11 11 10 10 10 10 10 10 10 10 9 9 9 9 9 9 9 9 9 9 9
12 12 12 12 11 11 11 11 11 11 11 11 11 11 11 11 10 10 10 10 10 10 10 10 10 10 9 9 9 9 9 9 9 9 9 9 9 9 9 9 9 10 10 10 9 9 9 9 9 9 9 9 9 9 9 9 9 9 9 9 9 8 8
12 12 12 11 10 10 11 11 11 11 11 11 11 11 11 11 10 10 10 10 10 10 10 9 9 9 9 9 9 9 9 9 9 9 9 9 9 9 9 9 9 9 9 9 9 9 9 9 9 8 8 8 8 8 8 9 9 9 9 9 9 8 8
12 11 11 10 10 10 10 11 11 11 10 11 11 11 11 11 10 10 10 10 10 10 10 9 9 9 9 9 9 9 9 9 9 9 9 9 9 9 8 8 8 8 8 8 8 8 8 8 8 8 7 7 7 7 7 8 8 8 8 9 9 9 8
12 11 11 10 10 10 11 11 11 11 10 11 11 11 11 11 10 10 10 10 10 10 10 9 9 9 9 9 9 9 8 8 8 8 8 9 9 9 8 8 8 8 8 8 8 8 7 7 7 7 7 7 7 7 7 8 8 8 8 8 9 9 8
12 12 11 11 10 11 11 10 11 11 10 11 11 11 11 11 10 10 10 10 10 10 10 9 9 9 9 9 8 8 8 8 8 8 8 8 8 8 8 8 8 8 8 8 7 7 7 7 7 7 7 7 7 7 7 8 8 8 8 8 8 8 8
12 12 11 11 11 11 11 10 10 10 11 11 11 11 11 10 10 10 10 10 10 10 10 9 9 9 9 8 8 8 8 8 8 8 8 8 8 8 8 8 8 8 8 7 7 7 7 7 7 7 7 7 7 7 7 8 8 8 8 8 8 8 8
13 12 12 11 11 11 11 10 10 11 11 11 11 11 11 10 10 10 10 10 10 10 9 9 9 9 9 8 8 8 8 8 8 8 7 7 8 8 8 8 8 8 8 7 7 7 7 7 7 7 7 7 7 7 7 8 8 8 8 8 8 8 8
13 12 12 11 11 11 11 11 11 11 11 11 11 11 10 10 10 10 10 10 10 10 10 9 9 9 9 8 8 8 8 8 8 7 7 7 7 8 8 8 8 8 8 7 7 7 7 7 7 7 7 7 7 7 8 8 8 8 8 8 8 8 8
13 12 11 11 11 11 11 11 11 11 11 11 11 11 10 10 10 10 10 10 10 10 9 9 9 9 9 8 8 8 8 8 8 7 7 7 7 8 8 8 8 8 7 7 7 7 7 7 7 7 7 7 8 8 8 8 8 8 8 8 8 8 8
12 12 12 12 12 12 12 12 12 11 11 11 11 11 11 11 10 10 10 10 10 9 9 9 9 9 8 8 8 8 7 7 7 7 7 7 7 8 8 8 8 7 7 7 7 7 7 7 7 7 8 8 8 8 8 8 8 8 8 8 8 8 8
12 12 12 12 12 11 12 12 12 11 11 11 11 11 10 10 9 9 9 9 9 9 9 9 9 9 8 8 8 8 7 7 7 7 7 7 8 8 8 8 7 7 7 7 7 7 7 7 8 8 8 8 8 8 8 8 8 8 8 8 8 8 8
11 11 11 11 11 11 12 12 11 11 12 12 11 10 9 9 9 8 8 8 9 9 9 9 8 8 8 8 8 7 7 7 7 7 7 7 7 8 7 7 7 7 7 7 7 7 7 8 8 8 8 8 8 8 8 8 8 8 8 8 8 8 8
11 11 11 11 12 11 11 11 11 11 11 11 10 9 9 9 9 9 9 9 9 8 8 8 8 8 8 7 7 7 7 7 7 7 7 7 7 7 7 7 7 7 7 7 7 7 8 8 8 8 8 8 8 8 8 8 8 8 8 8 8 8 8
11 11 11 12 12 11 11 11 11 11 11 10 10 9 9 9 9 9 9 9 8 8 8 8 8 8 7 7 7 7 7 7 7 7 7 7 7 7 7 7 7 7 7 7 7 7 8 8 8 8 8 8 8 8 8 8 8 7 8 8 8 7 7
11 12 12 12 11 11 11 10 10 10 9 9 9 9 9 9 9 9 9 8 8 8 8 8 8 7 7 7 7 7 7 7 7 7 7 7 7 7 7 7 7 7 7 7 7 7 8 8 8 8 8 7 7 7 7 7 7 7 7 7 7 6 6
11 11 11 11 11 10 11 10 9 9 9 9 9 9 9 10 9 9 9 8 8 8 8 7 7 7 7 7 7 7 7 7 7 7 7 7 7 7 7 7 7 7 7 7 7 8 8 8 8 7 7 7 7 7 7 7 7 6 6 6 5 5 5
11 11 11 10 10 10 10 10 10 10 10 10 10 10 10 10 9 9 9 8 8 8 7 7 7 7 7 7 7 7 7 7 7 7 7 7 7 7 7 7 7 7 7 7 8 8 8 7 7 7 7 7 7 6 6 6 6 6 6 5 5 4 4
12 11 11 10 10 10 10 11 11 11 10 10 10 10 10 9 9 9 8 8 8 8 7 7 7 7 7 7 7 7 7 7 7 7 7 7 7 7 7 7 7 7 8 8 8 7 7 7 7 7 7 7 7 6 6 6 5 5 5 5 4 4 4
12 12 11 11 11 11 11 11 11 10 9 9 9 9 9 9 8 8 8 8 7 7 7 7 7 7 7 7 7 7 7 7 7 7 7 7 7 7 7 7 8 7 7 7 7 7 7 7 7 7 7 7 7 7 6 6 5 5 4 4 4 3 3
11 12 11 11 11 11 10 10 9 8 8 9 9 9 9 9 8 8 8 8 8 7 8 8 8 8 7 7 7 7 7 7 7 7 7 7 7 7 7 7 7 7 6 7 7 7 7 7 7 7 7 7 7 7 6 5 5 4 3 3 3 3 3
11 11 11 10 10 10 9 8 8 8 9 9 9 9 9 9 9 8 8 8 8 8 8 8 8 7 7 7 7 7 7 7 7 7 7 7 7 7 7 7 6 6 6 6 7 7 7 7 6 6 6 6 6 6 6 5 4 4 3 3 3 3 2
10 10 10 9 9 9 9 8 9 9 10 10 10 9 9 9 9 9 9 9 9 8 8 8 7 7 7 7 7 7 7 7 7 7 7 7 7 7 6 6 6 6 6 6 6 6 6 6 6 5 6 6 6 6 6 5 4 3 3 3 2 2 2
9 9 9 9 9 9 9 9 10 10 10 10 10 9 9 9 9 9 9 9 9 8 8 7 7 7 7 6 6 7 7 6 7 7 7 7 7 6 6 6 6 6 6 6 6 6 5 5 5 5 5 6 6 6 5 4 4 3 3 2 2 2 3
10 10 10 10 10 10 10 10 10 10 10 10 10 9 9 9 9 9 9 9 8 8 7 7 7 7 6 6 6 7 6 6 6 6 6 7 7 6 6 6 6 6 6 6 6 5 5 5 5 5 6 6 6 5 4 3 3 2 2 2 2 2 2
10 11 10 10 10 10 10 10 10 10 10 10 9 9 9 9 9 9 9 8 8 8 7 7 7 6 6 6 6 6 6 6 6 6 6 7 6 6 6 6 6 6 6 6 6 5 5 5 5 5 6 6 5 4 3 2 2 2 2 2 2 2 2
11 11 10 10 10 10 10 10 10 10 10 9 9 9 9 9 9 9 8 8 8 7 7 7 6 6 6 6 6 6 6 6 6 6 7 7 6 6 6 6 6 6 6 6 6 5 5 5 5 5 6 5 5 3 2 2 1 2 2 2 2 2 3
11 10 10 10 10 10 10 10 10 10 9 9 9 9 9 9 8 8 8 8 7 7 7 6 6 6 6 6 6 6 6 6 7 7 7 6 6 6 6 6 6 6 6 6 5 5 5 5 5 5 5 5 4 3 2 2 2 2 2 2 3 3 3
Height
3155 3156 3156 3157 3158 3159 3159 3159 3159 3160 3160 3160 3160 3160 3160 3160 3161 3161 3162 3162 3162 3163 3163 3163 3164 3164 3164 3164 3165 3165 3165 3165 3166 3166 3166 3167 3166 3167 3167 3166 3166 3166 3166 3165 3164 3164 3163 3162 3162 3161 3161 3161 3161 3160 3161 3161 3161 3161 3160 3160 3160 3160 3160
3156 3156 3156 3156 3157 3157 3158 3158 3159 3160 3160 3160 3160 3160 3160 3160 3160 3160 3161 3161 3161 3162 3162 3163 3163 3163 3163 3164 3164 3164 3164 3165 3165 3165 3165 3165 3165 3165 3165 3165 3165 3164 3164 3163 3162 3162 3161 3160 3160 3160 3160 3160 3159 3159 3159 3159 3159 3158 3158 3158 3158 3157 3157
3155 3155 3155 3155 3156 3157 3158 3158 3159 3160 3160 3160 3160 3159 3159 3159 3159 3159 3160 3160 3160 3161 3162 3162 3162 3162 3163 3163 3164 3164 3164 3164 3164 3164 3164 3164 3164 3164 3163 3163 3163 3162 3162 3162 3161 3160 3159 3158 3158 3158 3158 3158 3158 3157 3157 3156 3156 3156 3155 3155 3155 3155 3155
3155 3156 3155 3155 3156 3157 3157 3158 3159 3160 3160 3160 3160 3159 3159 3158 3158 3159 3159 3160 3160 3160 3161 3161 3162 3162 3162 3163 3163 3163 3163 3163 3163 3163 3163 3163 3162 3162 3162 3161 3161 3161 3160 3160 3159 3158 3157 3157 3157 3156 3156 3156 3155 3154 3154 3153 3153 3152 3152 3152 3153 3153 3152
3156 3156 3155 3155 3156 3157 3157 3158 3159 3159 3160 3160 3159 3159 3158 3158 3158 3159 3159 3159 3160 3160 3161 3161 3162 3162 3162 3162 3162 3162 3162 3162 3162 3162 3162 3161 3161 3161 3160 3160 3160 3159 3158 3157 3157 3156 3155 3156 3155 3154 3153 3153 3153 3152 3152 3151 3151 3150 3150 3150 3150 3150 3150
3155 3155 3156 3156 3156 3157 3157 3158 3159 3159 3159 3159 3159 3158 3158 3158 3158 3158 3159 3159 3159 3160 3160 3161 3161 3161 3161 3161 3161 3161 3161 3161 3161 3161 3160 3160 3160 3159 3159 3158 3158 3157 3156 3156 3156 3155 3154 3154 3153 3152 3152 3151 3151 3150 3150 3149 3149 3148 3148 3148 3147 3147 3147
3153 3154 3155 3156 3156 3156 3157 3158 3159 3159 3159 3159 3159 3159 3158 3158 3158 3158 3158 3159 3159 3160 3160 3160 3160 3160 3160 3161 3161 3160 3160 3160 3160 3159 3159 3159 3158 3158 3157 3157 3156 3156 3155 3154 3154 3153 3153 3152 3151 3150 3150 3149 3149 3148 3147 3147 3146 3146 3145 3145 3145 3144 3144
3152 3152 3153 3154 3155 3155 3156 3158 3158 3159 3159 3159 3159 3159 3159 3158 3158 3158 3159 3159 3159 3159 3160 3160 3160 3160 3160 3160 3160 3160 3159 3159 3159 3158 3158 3157 3157 3156 3155 3155 3154 3154 3153 3153 3152 3151 3151 3150 3149 3148 3148 3147 3147 3146 3145 3145 3144 3143 3143 3142 3142 3142 3141
3151 3151 3152 3153 3153 3153 3154 3156 3157 3158 3159 3159 3159 3159 3159 3159 3158 3159 3159 3159 3159 3159 3159 3159 3159 3159 3159 3159 3159 3159 3158 3158 3158 3158 3157 3156 3156 3155 3154 3153 3153 3152 3151 3151 3150 3149 3149 3148 3147 3147 3146 3145 3145 3144 3143 3142 3142 3141 3140 3140 3139 3139 3138
3151 3152 3152 3152 3153 3152 3153 3155 3156 3157 3158 3159 3159 3159 3159 3159 3159 3159 3159 3159 3159 3159 3159 3159 3159 3159 3159 3158 3158 3158 3158 3157 3157 3156 3156 3155 3154 3154 3153 3152 3151 3151 3150 3149 3148 3147 3146 3146 3145 3145 3144 3144 3143 3142 3141 3140 3140 3139 3139 3138 3137 3136 3136
3151 3152 3152 3152 3152 3153 3153 3154 3155 3156 3158 3158 3159 3159 3159 3159 3159 3159 3159 3159 3159 3159 3159 3158 3158 3159 3158 3158 3158 3157 3157 3156 3156 3155 3154 3154 3153 3152 3151 3150 3149 3149 3148 3147 3146 3146 3145 3144 3143 3143 3142 3142 3141 3140 3139 3139 3138 3137 3137 3136 3135 3134 3134
3151 3152 3152 3152 3153 3153 3153 3154 3155 3156 3157 3158 3158 3158 3158 3158 3158 3158 3159 3158 3158 3158 3158 3158 3158 3158 3158 3157 3157 3156 3156 3155 3154 3154 3153 3152 3151 3151 3150 3149 3148 3147 3146 3145 3145 3144 3143 3142 3142 3141 3140 3139 3138 3137 3137 3136 3136 3135 3135 3134 3133 3132 3131
3151 3152 3153 3154 3154 3154 3154 3155 3155 3156 3157 3158 3158 3158 3158 3158 3158 3158 3158 3158 3158 3158 3158 3158 3158 3157 3157 3156 3156 3155 3154 3154 3153 3153 3152 3151 3150 3150 3149 3148 3147 3146 3145 3144 3143 3142 3142 3140 3139 3139 3138 3137 3136 3135 3134 3133 3132 3132 3131 3131 3130 3129 3128
3150 3152 3154 3155 3156 3155 3155 3156 3156 3157 3157 3157 3157 3158 3157 3157 3157 3157 3157 3157 3157 3157 3157 3157 3157 3156 3156 3155 3155 3154 3153 3153 3152 3152 3151 3150 3149 3148 3148 3147 3146 3145 3144 3143 3142 3141 3140 3138 3137 3137 3135 3134 3133 3132 3131 3130 3129 3129 3128 3127 3127 3126 3125
3152 3153 3154 3155 3156 3156 3156 3156 3156 3157 3157 3157 3157 3157 3157 3157 3157 3157 3157 3157 3156 3156 3156 3156 3156 3156 3155 3155 3154 3153 3153 3152 3151 3151 3150 3149 3148 3147 3146 3145 3144 3143 3142 3141 3140 3139 3137 3136 3135 3134 3133 3132 3131 3130 3129 3128 3127 3126 3125 3124 3123 3123 3122
3153 3154 3154 3154 3155 3155 3156 3156 3156 3157 3157 3157 3157 3157 3157 3156 3156 3156 3156 3156 3156 3155 3155 3155 3155 3155 3155 3154 3153 3152 3152 3151 3150 3150 3149 3148 3146 3145 3144 3143 3142 3141 3140 3139 3138 3137 3135 3134 3133 3132 3131 3130 3129 3128 3126 3125 3124 3123 3122 3121 3120 3119 3118
3153 3153 3153 3154 3155 3155 3156 3156 3156 3156 3156 3156 3156 3156 3156 3156 3155 3155 3155 3155 3154 3154 3154 3154 3154 3154 3154 3153 3152 3152 3151 3150 3149 3148 3147 3146 3145 3143 3142 3141 3140 3139 3138 3137 3136 3134 3133 3132 3131 3130 3129 3127 3126 3125 3123 3122 3121 3120 3119 3118 3117 3116 3115
3151 3150 3150 3152 3153 3154 3155 3155 3155 3155 3155 3155 3155 3155 3155 3154 3154 3154 3153 3153 3153 3152 3152 3152 3152 3152 3152 3151 3151 3150 3150 3149 3148 3147 3145 3144 3143 3141 3140 3139 3138 3137 3135 3134 3133 3132 3131 3130 3128 3127 3126 3124 3123 3122 3120 3119 3118 3117 3115 3114 3114 3113 3111
3149 3149 3149 3151 3152 3152 3153 3154 3154 3154 3153 3153 3153 3153 3153 3152 3152 3151 3151 3151 3150 3150 3150 3150 3150 3150 3150 3150 3149 3149 3148 3147 3146 3145 3144 3142 3141 3140 3138 3137 3136 3135 3133 3132 3131 3130 3129 3127 3126 3125 3123 3122 3120 3119 3118 3117 3116 3114 3112 3111 3110 3109 3108
3149 3150 3151 3151 3152 3153 3153 3153 3153 3153 3153 3152 3152 3151 3150 3149 3149 3149 3149 3148 3148 3148 3148 3148 3148 3149 3148 3148 3148 3147 3146 3145 3145 3143 3142 3141 3139 3138 3136 3135 3134 3132 3131 3130 3129 3127 3126 3125 3123 3122 3120 3119 3117 3116 3115 3114 3113 3111 3109 3107 3107 3106 3105
3150 3150 3151 3151 3152 3152 3152 3152 3152 3152 3152 3151 3150 3148 3148 3147 3147 3148 3148 3148 3148 3148 3148 3147 3147 3147 3147 3146 3146 3145 3144 3143 3143 3142 3140 3139 3137 3136 3134 3133 3131 3130 3128 3127 3126 3125 3123 3122 3121 3119 3118 3116 3115 3113 3112 3111 3110 3108 3106 3104 3103 3102 3102
3149 3149 3150 3151 3151 3151 3151 3151 3150 3150 3149 3148 3147 3146 3145 3145 3146 3146 3146 3147 3148 3148 3148 3147 3146 3146 3146 3145 3144 3144 3142 3142 3141 3139 3138 3136 3135 3133 3132 3130 3129 3127 3126 3125 3124 3122 3121 3119 3118 3117 3115 3114 3112 3111 3109 3108 3107 3105 3103 3101 3100 3099 3098
3148 3150 3150 3150 3150 3150 3150 3150 3150 3149 3148 3146 3143 3141 3142 3143 3144 3145 3146 3147 3148 3148 3147 3146 3145 3144 3144 3143 3143 3142 3141 3140 3139 3137 3136 3134 3133 3131 3130 3128 3127 3125 3124 3122 3121 3120 3119 3117 3116 3114 3113 3112 3110 3108 3107 3105 3104 3102 3099 3097 3096 3095 3094
3146 3148 3149 3148 3149 3149 3149 3149 3150 3150 3149 3146 3143 3141 3143 3145 3146 3146 3147 3147 3147 3147 3146 3145 3144 3143 3143 3142 3141 3140 3139 3138 3136 3135 3133 3132 3130 3129 3127 3126 3124 3123 3121 3120 3119 3118 3117 3115 3113 3112 3111 3109 3107 3105 3103 3102 3100 3098 3095 3093 3092 3091 3090
3143 3145 3147 3147 3147 3148 3148 3149 3150 3150 3149 3147 3144 3142 3143 3145 3145 3145 3145 3146 3146 3146 3145 3144 3143 3142 3142 3141 3139 3138 3136 3135 3133 3132 3130 3129 3128 3127 3125 3124 3122 3121 3119 3118 3116 3115 3114 3112 3110 3109 3108 3106 3104 3102 3100 3098 3097 3094 3091 3089 3088 3087 3086
3141 3144 3147 3147 3147 3147 3147 3146 3145 3145 3144 3143 3141 3140 3140 3142 3142 3142 3142 3143 3143 3143 3143 3142 3142 3141 3140 3138 3137 3135 3134 3132 3131 3130 3129 3127 3126 3125 3123 3121 3120 3118 3117 3115 3114 3113 3111 3109 3107 3106 3105 3103 3101 3099 3097 3095 3093 3091 3088 3086 3084 3083 3081
3139 3142 3145 3145 3145 3146 3145 3143 3141 3139 3138 3138 3139 3139 3140 3140 3139 3139 3139 3139 3139 3139 3140 3140 3139 3139 3137 3136 3134 3133 3132 3131 3129 3128 3127 3125 3124 3123 3121 3119 3118 3116 3114 3113 3112 3110 3109 3107 3105 3103 3102 3100 3099 3096 3094 3092 3090 3088 3085 3082 3080 3079 3077
3138 3140 3142 3143 3145 3145 3145 3144 3142 3141 3140 3140 3140 3140 3140 3139 3138 3138 3137 3136 3136 3136 3137 3137 3137 3136 3135 3133 3132 3131 3129 3128 3127 3126 3124 3123 3122 3120 3119 3117 3116 3114 3112 3111 3109 3108 3106 3104 3102 3101 3100 3098 3096 3094 3091 3089 3087 3085 3083 3080 3077 3075 3073
3138 3140 3141 3143 3145 3144 3144 3144 3144 3142 3142 3141 3140 3139 3139 3139 3138 3137 3136 3135 3135 3135 3135 3135 3134 3133 3132 3130 3129 3128 3127 3126 3125 3123 3122 3121 3119 3118 3117 3115 3114 3112 3110 3108 3106 3105 3103 3102 3100 3098 3097 3095 3094 3092 3089 3087 3084 3082 3079 3077 3074 3072 3070
3138 3140 3141 3143 3143 3143 3144 3145 3143 3141 3140 3139 3138 3138 3138 3138 3138 3136 3135 3134 3133 3133 3133 3132 3131 3130 3129 3128 3127 3126 3124 3124 3123 3122 3120 3119 3117 3116 3114 3113 3111 3109 3108 3106 3104 3102 3100 3099 3097 3095 3093 3092 3091 3089 3087 3085 3082 3079 3076 3073 3070 3068 3066
3138 3139 3140 3142 3143 3143 3143 3141 3138 3137 3138 3138 3138 3138 3138 3138 3137 3135 3134 3133 3132 3131 3130 3129 3129 3128 3127 3126 3125 3123 3122 3122 3121 3120 3118 3117 3115 3113 3112 3110 3108 3107 3105 3103 3102 3100 3098 3096 3094 3092 3090 3088 3087 3085 3084 3081 3079 3076 3073 3069 3067 3064 3062
3137 3138 3138 3139 3139 3139 3139 3136 3134 3135 3137 3137 3137 3137 3137 3136 3135 3134 3133 3132 3131 3130 3128 3127 3127 3126 3125 3124 3123 3121 3121 3120 3119 3118 3116 3115 3113 3111 3109 3108 3106 3105 3103 3101 3099 3097 3095 3093 3091 3089 3087 3085 3083 3081 3079 3077 3074 3072 3069 3066 3063 3061 3059
3135 3135 3134 3134 3135 3135 3136 3136 3135 3135 3136 3136 3135 3135 3134 3133 3133 3132 3130 3130 3129 3128 3127 3126 3125 3124 3124 3123 3121 3120 3119 3118 3117 3116 3114 3113 3111 3109 3107 3106 3105 3103 3101 3099 3097 3095 3093 3091 3089 3086 3084 3082 3079 3076 3073 3071 3070 3067 3065 3062 3060 3058 3056
3133 3132 3133 3133 3134 3134 3135 3135 3135 3134 3134 3134 3133 3133 3132 3131 3131 3130 3129 3128 3127 3127 3126 3125 3124 3123 3122 3121 3120 3119 3118 3116 3115 3114 3113 3111 3110 3108 3106 3104 3103 3101 3099 3097 3095 3093 3091 3089 3087 3084 3081 3078 3075 3072 3069 3066 3065 3063 3061 3058 3056 3053 3052
3133 3134 3134 3134 3134 3134 3134 3134 3133 3133 3132 3131 3131 3130 3130 3129 3129 3128 3128 3127 3126 3125 3125 3124 3124 3122 3121 3120 3118 3117 3116 3115 3113 3112 3111 3110 3108 3106 3104 3103 3101 3099 3098 3096 3094 3092 3090 3088 3085 3082 3079 3075 3073 3069 3066 3063 3061 3060 3057 3055 3053 3050 3048
3134 3134 3134 3134 3133 3133 3133 3132 3132 3131 3130 3130 3129 3129 3129 3128 3128 3127 3127 3126 3125 3124 3124 3123 3122 3121 3120 3119 3117 3115 3115 3113 3111 3110 3109 3108 3106 3105 3104 3102 3100 3098 3097 3095 3093 3091 3089 3086 3084 3081 3077 3074 3071 3067 3064 3061 3059 3057 3055 3053 3051 3049 3046
3133 3134 3133 3133 3132 3132 3131 3131 3130 3129 3129 3129 3128 3128 3127 3127 3127 3126 3126 3125 3124 3123 3123 3122 3121 3120 3119 3117 3115 3114 3113 3112 3110 3109 3107 3106 3105 3103 3102 3101 3100 3097 3095 3093 3091 3089 3087 3084 3082 3079 3075 3071 3068 3065 3063 3060 3057 3055 3052 3050 3048 3046 3043
3132 3132 3132 3131 3131 3130 3130 3129 3129 3128 3128 3127 3127 3127 3126 3126 3126 3125 3125 3124 3123 3122 3121 3121 3120 3118 3117 3116 3114 3113 3112 3110 3109 3107 3106 3104 3103 3102 3100 3099 3098 3096 3094 3092 3090 3088 3085 3083 3079 3076 3072 3068 3064 3062 3060 3059 3056 3053 3050 3047 3044 3042 3040
Wind_Speed
13 13 14 14 11 10 9 9 9 8 8 8 7 7 7 7 8 9 9 10 11 11 11 11 11 11 10 10 11 11 11 11 11 11 11 11 12 12 12 12 12 11 12 12 12 13 14 13 14 15 15 15 15 15 15 15 15 15 16 17 17 17 17
13 14 15 15 13 11 10 10 9 9 9 9 8 9 8 8 9 8 8 9 10 10 10 10 9 9 9 9 10 10 10 10 10 10 11 11 11 11 11 11 11 11 12 13 14 14 15 17 17 16 15 16 17 17 16 16 16 16 17 18 17 17 18
14 14 15 13 12 11 10 11 10 9 10 9 9 9 7 7 7 6 7 7 7 8 8 8 7 7 7 7 8 8 8 9 9 9 9 9 10 10 10 10 11 12 12 13 14 15 17 18 18 16 15 16 17 18 18 18 18 18 18 18 18 17 18
13 14 15 12 10 11 11 11 10 9 10 9 8 6 5 5 5 5 6 6 6 6 6 6 5 5 5 5 5 5 5 6 6 7 7 7 8 8 9 10 11 11 12 13 15 16 16 16 16 16 16 16 17 18 19 19 20 20 20 20 19 18 18
13 13 14 12 11 12 11 10 9 9 9 7 4 4 4 5 5 5 5 5 5 4 4 3 2 1 1 1 2 2 3 4 5 6 7 7 8 8 9 11 10 11 13 13 15 16 15 14 14 16 16 16 17 17 18 19 19 20 20 20 20 19 19
13 13 12 12 11 12 11 10 10 9 7 4 3 4 4 5 5 5 5 5 4 4 4 3 3 2 2 2 2 3 3 4 5 5 6 7 8 9 10 11 11 12 14 14 13 15 14 13 14 16 17 17 17 17 17 18 18 19 19 19 20 19 19
12 13 11 11 11 11 11 11 10 8 6 5 5 4 5 5 5 6 5 5 5 4 4 4 4 3 3 3 3 3 4 4 4 5 6 6 8 9 10 11 11 12 14 13 14 14 14 13 14 17 17 16 16 16 17 17 17 18 18 19 19 19 20
11 11 11 12 11 9 10 11 10 8 7 6 6 5 5 5 5 6 6 5 5 4 5 5 4 5 5 6 6 6 6 5 4 4 5 6 7 9 10 11 12 12 13 13 14 14 14 14 15 16 17 16 15 16 17 17 17 17 18 18 18 19 19
12 11 12 12 11 10 11 13 13 10 9 8 6 5 5 4 4 5 5 5 5 5 5 5 5 6 7 8 9 9 9 7 6 6 7 8 8 9 10 11 12 13 13 14 14 14 14 14 14 15 15 15 15 16 17 17 17 18 18 19 19 19 19
12 11 13 13 12 13 14 15 15 12 11 9 6 5 5 4 4 4 4 5 5 5 5 6 7 8 9 10 11 11 11 10 9 9 10 12 12 11 11 11 12 12 13 14 14 14 14 15 15 14 15 15 16 17 18 18 19 19 19 19 20 20 20
12 10 13 14 14 16 14 13 15 13 12 10 7 6 5 3 4 3 4 4 5 5 6 7 8 9 10 10 11 12 12 12 12 14 15 16 16 16 15 14 14 14 14 14 15 15 15 16 16 16 17 17 18 18 18 19 19 19 19 19 19 20 20
12 12 13 14 16 17 13 13 14 13 12 11 8 6 5 3 3 2 3 3 4 5 6 7 8 9 10 11 11 12 12 13 14 16 18 19 19 19 19 18 17 17 16 16 16 16 17 17 17 18 19 19 20 20 20 19 18 18 18 18 18 19 20
10 12 13 13 16 18 15 14 14 12 12 11 8 6 5 2 2 2 3 3 4 5 7 8 8 9 11 12 13 13 13 13 14 17 19 20 21 21 20 20 19 18 18 17 18 18 18 18 19 20 20 21 22 22 22 22 21 20 19 17 17 18 19
9 13 13 12 15 18 16 15 13 11 11 11 9 7 6 3 2 1 2 3 4 6 7 8 9 11 12 13 15 15 14 15 16 18 20 22 23 23 22 22 22 21 20 19 19 19 19 20 21 21 21 22 23 24 24 24 24 23 21 20 19 19 20
9 12 12 13 15 15 14 14 13 11 11 11 9 8 7 5 3 1 1 3 5 6 7 8 9 11 12 14 15 16 17 17 17 19 21 23 24 24 24 24 23 23 22 20 20 20 20 21 22 22 22 23 24 24 25 25 24 24 23 23 22 21 21
8 9 10 14 15 14 13 14 14 12 12 11 10 8 8 6 4 3 2 3 5 6 7 8 10 11 13 15 16 17 18 17 17 19 22 24 25 26 26 25 24 25 24 22 21 21 21 22 23 23 24 24 24 25 25 26 26 25 25 25 25 24 23
6 8 10 12 14 14 14 14 14 14 13 12 10 9 8 7 5 5 4 4 5 7 8 9 10 12 14 16 17 19 19 18 19 21 23 25 26 27 27 26 26 27 26 23 22 22 23 23 24 24 25 25 25 25 26 27 27 27 27 27 26 26 26
6 9 11 12 13 14 14 14 14 13 12 11 10 9 8 7 7 7 6 6 7 8 10 11 11 13 15 16 18 19 20 21 22 23 24 26 27 28 29 28 29 29 27 24 24 24 24 24 25 25 25 26 26 27 27 27 27 28 28 28 27 27 27
8 12 13 12 12 13 13 13 11 10 10 10 10 8 8 8 8 8 8 8 9 10 11 12 13 15 16 18 19 20 21 23 24 24 26 28 29 30 31 31 31 31 28 26 25 25 25 25 25 25 25 26 27 28 28 27 27 27 28 28 28 27 28
10 12 14 14 13 13 13 12 11 10 10 9 9 9 9 9 9 9 9 10 11 12 13 13 14 15 17 19 21 22 23 25 25 25 27 29 30 31 33 33 32 31 29 27 26 26 26 25 25 25 26 27 28 28 28 27 27 27 28 29 28 28 28
8 9 12 13 13 13 13 13 12 11 10 9 9 9 9 9 10 11 11 12 13 13 14 16 16 16 17 20 22 23 25 26 26 27 29 30 32 33 33 33 32 31 29 27 26 26 25 25 26 26 27 27 27 28 28 27 27 27 29 30 30 29 29
7 9 11 12 12 13 14 13 12 10 10 9 10 12 14 14 14 15 15 15 15 16 16 17 18 17 18 20 23 25 26 26 27 29 30 32 33 33 33 33 32 30 28 27 26 25 25 26 26 26 26 26 26 27 27 27 27 28 29 31 31 31 30
9 9 11 13 14 13 13 13 13 12 9 9 14 19 21 20 19 18 18 17 16 17 18 18 18 19 20 21 23 25 26 27 28 29 31 32 32 33 33 32 30 27 26 26 25 25 26 26 26 25 25 25 25 26 27 27 27 28 30 32 32 32 31
10 10 12 16 15 12 13 15 16 15 12 14 20 22 18 17 17 18 17 17 17 17 16 17 19 20 20 21 24 26 26 27 28 30 31 32 33 34 33 29 27 25 25 26 26 25 25 25 25 25 24 25 26 27 28 28 28 29 31 32 32 32 31
15 14 13 15 14 13 16 18 17 17 15 17 19 17 14 15 17 16 16 18 19 16 14 16 19 20 20 22 25 27 26 27 29 30 32 33 33 32 28 25 25 25 25 25 25 24 24 24 25 25 25 26 26 27 27 27 26 27 29 30 30 30 29
18 13 9 11 13 14 16 17 18 17 16 17 16 14 13 15 16 16 15 16 17 14 13 16 18 19 21 23 25 25 26 28 30 30 32 33 30 27 24 24 25 25 25 24 24 24 24 25 25 25 24 24 24 24 24 25 24 25 27 28 29 28 28
19 12 9 10 13 14 15 16 18 18 16 15 14 13 14 14 15 16 16 16 15 14 15 16 18 20 21 22 23 25 28 30 31 31 31 29 26 24 23 24 24 24 24 24 24 24 24 23 23 23 21 21 22 23 24 24 25 25 26 28 29 28 29
20 16 13 12 13 16 16 14 15 15 13 13 12 12 14 15 14 16 18 17 16 15 16 18 19 21 22 24 27 29 30 30 30 29 26 24 23 23 24 23 23 23 23 24 23 22 21 20 21 20 20 20 21 23 24 25 26 27 27 27 29 29 30
19 20 18 16 16 17 15 14 14 13 10 9 10 11 14 15 14 16 18 17 17 17 18 19 22 23 25 27 28 28 28 27 26 24 22 22 23 24 23 22 21 21 22 22 21 21 20 20 20 21 21 21 22 23 24 25 26 28 28 28 29 29 30
16 19 18 16 16 17 16 14 11 8 6 6 9 12 13 14 15 16 17 17 18 20 21 22 23 24 25 25 24 24 24 22 21 20 21 22 23 23 22 21 20 21 21 20 20 21 21 21 22 23 24 25 25 25 26 26 26 27 27 28 28 29 30
15 17 16 14 11 12 13 12 6 2 4 7 11 13 14 15 16 16 16 17 19 21 22 23 22 22 22 21 21 21 21 20 19 19 19 20 21 21 21 21 20 21 21 21 21 21 22 23 25 26 27 28 28 29 29 29 28 27 27 27 28 29 30
11 14 13 9 5 8 9 6 3 4 7 10 13 15 15 15 15 16 16 17 17 18 20 20 19 19 18 18 19 20 20 19 19 18 17 18 19 21 21 20 20 20 21 21 22 22 24 25 26 28 29 30 32 34 33 32 30 28 28 29 29 30 31
8 8 6 4 3 8 9 8 8 10 11 13 14 14 14 13 12 13 14 15 15 15 16 16 16 16 16 16 18 20 19 19 19 17 17 18 19 20 20 19 19 20 21 23 23 24 26 26 27 28 31 33 36 38 38 36 32 29 28 28 29 29 30
6 6 4 2 6 10 10 10 11 12 13 14 13 11 10 10 11 12 13 14 14 14 13 13 13 14 15 16 18 19 19 20 20 18 18 18 19 20 20 20 20 21 22 24 24 25 25 25 26 29 33 36 38 39 39 36 31 28 27 27 27 27 28
5 5 6 9 12 13 11 11 12 13 13 12 10 9 9 9 10 11 11 12 13 12 12 12 12 13 15 16 18 20 19 19 20 19 18 18 18 18 18 20 21 22 22 23 23 24 23 23 26 30 34 37 38 38 35 32 28 26 26 26 25 26 27
7 8 10 12 12 12 12 12 12 12 12 10 9 8 9 9 10 10 11 12 12 12 12 12 13 14 15 16 18 19 18 18 19 19 19 19 17 16 17 19 21 22 22 22 22 22 22 24 27 31 34 37 37 33 28 25 25 26 25 25 24 25 27
9 10 11 11 11 11 12 12 11 11 10 9 8 8 9 9 9 10 11 12 12 13 12 13 14 14 15 16 18 18 17 16 17 18 19 18 17 17 18 18 19 20 22 22 23 23 24 26 29 32 35 37 36 30 23 21 24 26 25 25 25 25 27
10 10 10 10 10 10 10 10 10 10 9 8 8 9 9 9 10 10 11 12 13 13 14 15 16 15 15 16 16 16 15 15 16 17 17 17 17 18 19 20 20 20 21 22 22 23 24 27 30 33 35 36 33 28 23 21 24 26 26 26 26 27 28
Wind_Direction
202 194 211 228 225 220 229 231 227 230 235 237 237 239 243 244 245 242 238 232 226 226 229 231 233 235 237 239 242 246 247 248 251 254 258 261 265 269 270 270 275 277 279 281 280 281 285 284 277 274 277 280 280 278 278 277 275 273 273 273 273 273 273
196 198 212 224 224 222 223 226 224 227 237 241 248 258 258 254 257 252 241 234 225 222 226 228 231 234 235 238 244 248 249 251 254 257 259 261 264 268 272 276 280 280 281 282 284 285 285 282 279 279 280 281 281 282 282 280 278 275 273 273 273 273 272
197 205 213 213 217 223 220 223 225 228 241 250 257 266 266 260 262 253 233 225 214 210 214 219 222 227 230 233 240 247 251 255 258 261 263 266 270 274 278 282 282 282 284 284 284 283 282 283 287 290 289 286 286 285 285 284 282 280 277 275 276 275 274
206 208 215 212 215 225 224 226 226 231 246 252 257 263 259 251 245 231 220 207 200 201 204 209 212 218 225 230 240 248 256 263 266 272 279 283 286 289 290 287 287 288 286 283 282 282 285 290 295 297 296 293 289 286 286 286 284 284 284 283 282 278 275
215 213 218 217 220 227 229 232 233 240 250 249 248 242 228 225 213 201 198 184 183 184 180 188 181 196 245 273 287 292 293 292 295 296 296 295 292 292 288 287 290 288 283 282 283 287 295 300 299 297 297 295 292 289 288 287 287 286 286 285 282 279 276
213 217 221 220 225 230 232 238 237 240 250 244 233 223 200 193 182 168 160 150 150 143 133 123 96 73 26 18 349 325 312 303 301 296 291 288 286 286 286 287 287 282 283 287 290 291 298 301 296 293 293 293 293 292 290 289 289 287 287 286 285 283 280
210 217 225 225 227 233 231 231 232 234 243 234 220 208 181 172 159 142 135 128 125 122 113 99 78 58 35 23 1 344 338 328 320 310 304 301 298 296 293 292 289 287 290 295 295 295 298 296 291 290 293 295 293 291 291 291 291 290 290 289 288 286 284
215 216 226 222 215 222 223 220 223 228 230 224 215 204 183 169 147 126 118 111 103 92 80 65 48 36 25 15 7 358 351 345 341 335 327 321 314 309 306 303 300 296 295 296 295 296 296 293 289 290 294 296 292 290 292 293 292 292 290 289 288 286 285
224 215 222 221 208 209 211 209 213 217 220 220 214 209 202 179 145 119 102 87 75 66 57 42 30 25 14 9 8 1 357 354 345 341 338 333 328 322 316 313 310 307 305 304 302 300 299 297 294 291 292 293 293 294 296 295 294 293 293 293 293 291 289
218 208 212 214 205 204 207 207 211 215 219 223 223 224 218 185 146 116 96 84 69 59 48 35 28 24 12 6 7 2 360 356 348 346 343 338 335 331 324 318 314 313 311 309 309 308 308 307 304 301 297 296 295 296 297 296 295 295 295 295 295 295 294
216 209 211 210 199 205 213 211 213 217 219 226 233 230 225 192 156 117 92 85 66 52 44 36 28 24 16 8 5 3 0 357 353 352 348 343 342 339 337 333 327 324 322 318 317 316 313 311 309 307 305 302 300 299 298 297 296 297 297 295 293 293 293
232 219 219 215 202 209 222 216 215 218 218 225 234 230 231 209 170 113 86 80 58 47 39 35 27 20 15 9 5 1 359 358 355 354 352 348 347 344 342 339 334 331 327 322 319 317 314 312 310 309 308 306 305 304 304 302 299 300 298 293 291 292 293
254 229 224 216 203 209 220 220 219 218 216 228 239 237 242 226 186 123 91 76 48 40 33 27 21 13 9 6 3 360 357 355 352 351 352 350 347 344 339 336 333 330 325 321 318 316 314 312 311 310 309 307 307 307 308 308 307 307 306 299 294 294 293
250 234 227 212 205 213 221 223 227 222 220 235 244 240 245 240 216 185 84 47 30 31 24 16 10 5 2 0 359 357 353 350 348 348 348 347 345 341 336 332 330 327 323 319 317 314 313 311 310 309 308 307 307 306 307 308 309 310 310 307 302 301 299
219 226 225 209 210 221 225 227 233 228 224 238 244 239 244 243 227 236 355 7 11 14 10 4 359 355 353 350 350 349 346 343 343 344 343 342 340 338 334 329 327 327 323 317 315 313 311 310 309 308 307 306 305 305 305 306 308 310 310 308 306 305 302
202 219 223 210 214 224 223 225 231 230 229 238 240 237 240 238 232 252 300 335 348 354 354 349 346 344 342 340 338 339 339 337 337 338 337 337 336 335 333 328 326 326 323 316 313 311 309 309 308 307 307 306 306 306 307 308 310 311 310 308 307 306 303
200 220 226 214 216 222 220 222 226 226 229 235 236 234 234 233 239 259 287 310 321 332 336 336 336 334 331 330 330 333 334 332 331 332 332 332 332 332 330 327 324 324 322 316 312 310 309 308 308 308 308 307 308 308 308 309 310 310 308 307 306 305 304
220 221 226 218 217 219 218 221 225 226 230 236 235 230 229 234 247 261 278 294 303 315 325 328 330 328 324 322 323 327 330 328 326 326 327 329 329 328 328 326 323 323 320 316 312 311 310 310 310 310 310 309 309 309 309 309 309 308 306 306 305 304 302
225 215 220 221 217 215 214 216 220 223 224 227 229 230 231 240 251 262 275 290 301 309 316 321 323 323 322 320 319 321 324 325 323 322 324 325 324 324 325 323 322 321 318 314 313 312 312 312 312 312 311 310 309 309 308 309 308 306 304 303 302 301 300
218 210 215 217 212 210 211 209 208 210 212 214 222 230 236 242 249 258 273 287 295 298 302 307 312 318 320 319 318 318 320 321 320 319 320 320 320 320 321 320 320 319 316 314 314 313 313 313 314 313 312 310 309 308 308 308 307 305 302 301 300 300 299
218 217 217 216 210 209 211 207 198 200 210 217 225 238 249 256 259 261 269 280 286 290 293 297 304 313 316 314 315 316 316 317 317 316 316 315 316 317 318 319 318 316 315 314 314 314 314 315 314 313 311 310 308 307 307 307 306 304 302 300 300 299 299
227 227 225 222 214 210 211 209 200 201 216 231 240 247 249 248 251 253 253 260 270 276 282 290 299 307 310 309 311 311 311 312 313 314 313 313 315 317 317 316 316 314 313 313 313 315 314 313 312 310 309 307 306 305 304 304 304 302 300 299 298 298 298
222 219 221 222 216 211 211 211 210 216 232 247 243 240 241 245 255 259 256 258 265 267 273 283 292 299 303 305 307 307 306 309 310 310 310 312 314 316 315 315 315 313 313 312 313 313 312 310 309 308 307 306 305 304 303 303 303 301 298 297 297 297 297
234 239 230 221 214 213 216 216 220 230 246 255 248 246 254 271 285 287 280 277 272 264 271 283 288 292 297 301 304 303 303 306 308 308 310 313 313 313 313 313 313 312 312 312 312 312 310 309 308 308 308 309 308 307 306 305 304 301 298 296 296 297 296
233 247 237 218 210 216 223 225 228 231 240 251 256 261 274 287 295 295 288 281 273 265 272 283 284 288 295 298 301 301 301 305 308 309 311 311 310 311 311 311 311 311 311 311 311 311 310 310 310 311 312 312 311 310 309 308 306 303 299 298 298 298 297
223 235 232 219 214 219 231 239 241 242 248 258 267 275 282 286 288 288 286 288 287 284 282 280 284 291 295 296 298 300 302 305 307 308 308 307 309 310 311 311 311 312 311 311 312 312 312 313 313 314 315 315 313 313 313 313 313 311 308 306 305 303 302
229 236 239 236 229 231 243 254 259 263 268 274 280 284 288 292 291 289 292 296 295 291 286 285 289 293 292 293 296 299 302 303 304 305 306 307 309 311 311 312 313 313 312 313 314 314 314 315 315 316 318 319 320 320 321 321 320 318 315 311 308 305 304
230 232 236 245 243 238 238 244 253 261 270 278 284 287 293 297 294 292 298 299 296 295 294 292 292 291 292 296 298 300 301 301 302 305 307 309 311 311 312 314 314 313 313 313 314 315 317 318 318 320 324 328 329 329 327 325 323 320 316 310 305 302 300
218 221 230 242 245 238 234 237 244 248 255 272 281 287 295 297 292 291 296 297 296 297 295 292 293 295 297 298 299 300 301 301 304 307 309 310 311 311 313 314 313 313 314 315 318 321 324 326 326 328 331 334 335 334 330 326 322 318 314 308 302 299 297
214 218 225 234 238 238 235 234 237 242 247 267 282 289 292 291 288 291 295 295 294 294 293 293 296 296 296 297 298 300 302 305 308 310 310 311 311 311 314 317 318 320 321 323 325 328 330 331 332 332 333 334 336 335 331 326 321 316 312 307 302 299 297
220 220 223 224 232 249 243 223 211 256 272 270 280 285 284 283 285 288 289 290 292 293 294 295 297 297 299 302 303 304 307 311 313 312 311 311 312 315 320 325 328 328 327 328 329 330 331 333 333 333 333 334 335 335 331 326 321 316 310 304 301 300 298
219 219 225 223 244 295 286 251 251 297 281 275 281 283 282 283 287 288 289 290 292 293 295 298 300 302 305 306 306 307 311 315 317 317 316 316 318 322 327 330 332 330 328 328 330 331 332 333 333 333 333 334 335 334 331 326 321 316 309 305 302 301 299
204 200 194 181 244 302 301 287 289 291 284 283 285 285 286 289 291 293 295 298 302 301 301 303 307 309 311 311 309 311 318 322 323 323 323 323 324 326 327 330 332 331 329 330 330 330 332 332 332 332 333 333 334 332 329 326 323 318 312 308 305 303 301
175 176 170 207 281 298 297 287 287 288 287 289 290 289 292 296 298 302 306 309 313 312 310 312 315 315 315 315 313 318 326 327 324 325 326 326 326 326 327 330 332 332 331 330 329 330 331 331 330 330 330 331 332 330 327 324 323 321 316 313 310 308 306
193 221 262 285 292 296 293 289 291 292 292 293 295 297 301 302 305 314 318 318 320 321 319 323 323 320 320 318 317 322 328 325 321 324 326 325 327 328 330 331 331 331 331 329 328 328 326 324 325 326 327 329 330 328 325 323 323 322 319 317 314 311 309
241 260 279 287 287 288 291 293 296 296 294 295 297 299 303 305 312 323 327 328 329 328 325 328 329 326 324 319 317 322 325 321 320 323 325 326 329 331 331 330 329 329 329 328 327 325 320 318 320 322 324 325 327 326 323 322 321 319 316 314 311 307 306
260 272 281 286 290 295 298 299 299 295 292 293 295 296 300 305 316 328 335 336 334 332 330 331 328 325 323 318 317 320 320 318 321 325 326 328 331 332 331 331 330 329 330 330 328 325 320 318 319 321 322 323 324 324 322 320 318 316 314 311 308 305 305
273 283 290 296 300 299 298 298 295 291 288 286 288 293 299 308 321 333 339 338 335 334 332 330 326 325 323 319 316 317 318 320 326 329 329 331 333 333 333 333 332 333 334 332 329 325 322 322 323 323 324 325 325 324 324 321 319 317 314 312 312 312 311